| time (UTC) | temp F | wind direction | speed MPH | gust MPH | rain 1hr in | rain 24hr in | rain mn in | humidity % | barometer mb |
| 20260831031516 | 66 | 259 | 0.0 | 2.0 | 0.07 | 0.21 | 0.21 | 94 | 1020.3 |
| 20260831030008 | 66 | 259 | 0.0 | 2.0 | 0.09 | 0.21 | 0.21 | 94 | 1020.5 |
| 20260831024517 | 66 | 291 | 0.0 | 3.0 | 0.12 | 0.19 | 0.19 | 94 | 1020.6 |
| 20260831023011 | 66 | 99 | 0.0 | 0.0 | 0.11 | 0.18 | 0.18 | 94 | 1020.4 |
| 20260831021513 | 66 | 87 | 0.0 | 0.0 | 0.07 | 0.14 | 0.14 | 94 | 1020.6 |
| 20260831020009 | 66 | 87 | 0.0 | 0.0 | 0.05 | 0.12 | 0.12 | 93 | 1020.7 |
| 20260831014513 | 66 | 87 | 0.0 | 0.0 | 0.00 | 0.07 | 0.07 | 93 | 1020.7 |
| 20260831013010 | 65 | 87 | 0.0 | 0.0 | 0.00 | 0.07 | 0.07 | 92 | 1020.7 |
| 20260831011517 | 65 | 87 | 0.0 | 0.0 | 0.00 | 0.07 | 0.07 | 92 | 1020.5 |
| 20260831010027 | 65 | 87 | 0.0 | 0.0 | 0.00 | 0.07 | 0.07 | 92 | 1020.5 |
| 20260831004512 | 65 | 87 | 0.0 | 0.0 | 0.00 | 0.07 | 0.07 | 92 | 1020.3 |
| 20260831003013 | 65 | 87 | 0.0 | 0.0 | 0.00 | 0.07 | 0.07 | 91 | 1020.2 |
| 20260831001527 | 65 | 87 | 0.0 | 0.0 | 0.00 | 0.07 | 0.07 | 91 | 1020.1 |
| 20260831000012 | 65 | 87 | 0.0 | 0.0 | 0.00 | 0.07 | 0.07 | 91 | 1020.0 |
| 20260830234526 | 65 | 87 | 0.0 | 0.0 | 0.00 | 0.07 | 0.07 | 91 | 1020.0 |
| 20260830233013 | 66 | 87 | 0.0 | 0.0 | 0.00 | 0.07 | 0.07 | 90 | 1019.9 |
| 20260830231512 | 66 | 87 | 0.0 | 0.0 | 0.00 | 0.07 | 0.07 | 90 | 1019.8 |
| 20260830230028 | 65 | 87 | 0.0 | 0.0 | 0.00 | 0.07 | 0.07 | 89 | 1020.0 |
| 20260830224516 | 66 | 87 | 0.0 | 0.0 | 0.00 | 0.07 | 0.07 | 89 | 1020.0 |
| 20260830223018 | 67 | 87 | 0.0 | 0.0 | 0.00 | 0.07 | 0.07 | 87 | 1020.0 |
| 20260830221512 | 67 | 87 | 0.0 | 0.0 | 0.00 | 0.07 | 0.07 | 87 | 1020.0 |
| 20260830220024 | 67 | 87 | 0.0 | 0.0 | 0.00 | 0.07 | 0.07 | 1020.0 | |
| 20260830214510 | 67 | 87 | 0.0 | 2.0 | 0.00 | 0.07 | 0.07 | 1019.9 | |
| 20260830213012 | 68 | 87 | 0.0 | 0.0 | 0.00 | 0.07 | 0.07 | 82 | 1019.9 |
| 20260830211526 | 68 | 87 | 0.0 | 0.0 | 0.00 | 0.07 | 0.07 | 83 | 1019.8 |
| 20260830210024 | 68 | 87 | 0.0 | 0.0 | 0.00 | 0.07 | 0.07 | 84 | 1020.0 |
| 20260830204521 | 68 | 87 | 0.0 | 2.0 | 0.00 | 0.07 | 0.07 | 85 | 1020.1 |
| 20260830203018 | 68 | 90 | 0.0 | 2.0 | 0.00 | 0.07 | 0.07 | 86 | 1020.1 |
| 20260830201533 | 68 | 90 | 0.0 | 1.0 | 0.00 | 0.07 | 0.07 | 86 | 1020.4 |
| 20260830200009 | 68 | 95 | 0.0 | 3.0 | 0.00 | 0.07 | 0.07 | 86 | 1020.4 |
| 20260830194509 | 68 | 5 | 1.0 | 8.0 | 0.00 | 0.07 | 0.07 | 84 | 1020.5 |
| 20260830193015 | 68 | 41 | 0.0 | 3.0 | 0.00 | 0.07 | 0.07 | 85 | 1020.5 |
| 20260830191514 | 68 | 53 | 2.0 | 6.0 | 0.00 | 0.07 | 0.07 | 86 | 1020.4 |
| 20260830190019 | 69 | 88 | 1.0 | 4.0 | 0.00 | 0.07 | 0.07 | 85 | 1020.4 |
| 20260830184516 | 70 | 36 | 0.0 | 5.0 | 0.00 | 0.07 | 0.07 | 87 | 1020.7 |
| 20260830183014 | 69 | 335 | 2.0 | 3.0 | 0.00 | 0.07 | 0.07 | 88 | 1020.8 |
| 20260830181513 | 69 | 248 | 0.0 | 2.0 | 0.00 | 0.07 | 0.07 | 90 | 1021.1 |
| 20260830180017 | 69 | 248 | 0.0 | 2.0 | 0.00 | 0.07 | 0.07 | 90 | 1021.0 |
| 20260830174515 | 69 | 248 | 0.0 | 2.0 | 0.00 | 0.07 | 0.07 | 90 | 1020.9 |
| 20260830173025 | 69 | 248 | 0.0 | 2.0 | 0.00 | 0.07 | 0.07 | 89 | 1020.6 |
| 20260830171517 | 69 | 248 | 0.0 | 2.0 | 0.00 | 0.07 | 0.07 | 89 | 1020.7 |
| 20260830170014 | 69 | 248 | 0.0 | 2.0 | 0.00 | 0.07 | 0.07 | 89 | 1020.7 |
| 20260830164514 | 69 | 248 | 0.0 | 2.0 | 0.01 | 0.07 | 0.07 | 89 | 1020.6 |
| 20260830163012 | 69 | 247 | 0.0 | 2.0 | 0.04 | 0.07 | 0.07 | 89 | 1020.7 |
| 20260830161513 | 68 | 67 | 0.0 | 2.0 | 0.06 | 0.07 | 0.07 | 91 | 1020.8 |
| 20260830160015 | 67 | 69 | 0.0 | 2.0 | 0.06 | 0.07 | 0.07 | 91 | 1021.0 |
| 20260830154530 | 67 | 131 | 1.0 | 4.0 | 0.05 | 0.06 | 0.06 | 91 | 1021.3 |
| 20260830153029 | 67 | 340 | 2.0 | 3.0 | 0.02 | 0.03 | 0.03 | 88 | 1021.4 |
| 20260830151523 | 68 | 360 | 2.0 | 5.0 | 0.00 | 0.01 | 0.01 | 88 | 1021.2 |
| 20260830150031 | 67 | 261 | 0.0 | 1.0 | 0.00 | 0.01 | 0.01 | 87 | 1020.9 |
| 20260830144528 | 67 | 261 | 0.0 | 2.0 | 0.00 | 0.01 | 0.01 | 85 | 1020.7 |
| 20260830143016 | 67 | 261 | 0.0 | 0.0 | 0.00 | 0.01 | 0.01 | 83 | 1020.4 |
| 20260830141518 | 68 | 261 | 0.0 | 0.0 | 0.00 | 0.01 | 0.01 | 82 | 1020.3 |
| 20260830140016 | 67 | 261 | 0.0 | 0.0 | 0.00 | 0.01 | 0.01 | 83 | 1020.2 |
| 20260830134517 | 67 | 261 | 0.0 | 2.0 | 0.00 | 0.01 | 0.01 | 86 | 1020.2 |
| 20260830133035 | 66 | 261 | 0.0 | 2.0 | 0.00 | 0.01 | 0.01 | 89 | 1020.3 |
| 20260830131517 | 66 | 261 | 0.0 | 0.0 | 0.00 | 0.01 | 0.01 | 89 | 1020.1 |
| 20260830130015 | 65 | 261 | 0.0 | 3.0 | 0.00 | 0.01 | 0.01 | 89 | 1019.9 |
| 20260830124518 | 65 | 261 | 0.0 | 0.0 | 0.01 | 0.01 | 0.01 | 89 | 1020.1 |
| 20260830123013 | 65 | 261 | 0.0 | 0.0 | 0.01 | 0.01 | 0.01 | 89 | 1020.2 |
| 20260830121516 | 64 | 261 | 0.0 | 1.0 | 0.01 | 0.01 | 0.01 | 88 | 1019.9 |
| 20260830120018 | 64 | 261 | 0.0 | 2.0 | 0.01 | 0.01 | 0.01 | 88 | 1019.9 |
| 20260830114519 | 65 | 261 | 0.0 | 2.0 | 0.00 | 0.00 | 0.00 | 83 | 1019.8 |
| 20260830113016 | 65 | 261 | 0.0 | 2.0 | 0.00 | 0.00 | 0.00 | 78 | 1019.9 |
| 20260830111514 | 65 | 261 | 0.0 | 2.0 | 0.00 | 0.00 | 0.00 | 78 | 1020.0 |
| 20260830110012 | 65 | 261 | 0.0 | 0.0 | 0.00 | 0.00 | 0.00 | 78 | 1020.1 |
| 20260830104509 | 65 | 261 | 0.0 | 0.0 | 0.00 | 0.00 | 0.00 | 76 | 1020.1 |
| 20260830103016 | 65 | 261 | 0.0 | 0.0 | 0.00 | 0.00 | 0.00 | 77 | 1020.0 |
| 20260830101517 | 65 | 261 | 0.0 | 0.0 | 0.00 | 0.00 | 0.00 | 76 | 1020.0 |
| 20260830100017 | 65 | 261 | 0.0 | 0.0 | 0.00 | 0.00 | 0.00 | 76 | 1020.1 |
| 20260830094527 | 66 | 261 | 0.0 | 0.0 | 0.00 | 0.00 | 0.00 | 76 | 1020.1 |
| 20260830093019 | 66 | 261 | 0.0 | 0.0 | 0.00 | 0.00 | 0.00 | 75 | 1020.0 |
| 20260830091518 | 65 | 261 | 0.0 | 0.0 | 0.00 | 0.00 | 0.00 | 77 | 1020.0 |
| 20260830090036 | 66 | 261 | 0.0 | 1.0 | 0.00 | 0.00 | 0.00 | 77 | 1020.0 |
| 20260830084517 | 66 | 261 | 0.0 | 1.0 | 0.00 | 0.00 | 0.00 | 76 | 1020.2 |
| 20260830083018 | 66 | 261 | 0.0 | 2.0 | 0.00 | 0.00 | 0.00 | 76 | 1020.4 |
| 20260830081516 | 65 | 261 | 0.0 | 2.0 | 0.00 | 0.00 | 0.00 | 77 | 1020.3 |
| 20260830080037 | 65 | 261 | 0.0 | 0.0 | 0.00 | 0.00 | 0.00 | 78 | 1020.5 |
| 20260830074519 | 65 | 261 | 0.0 | 2.0 | 0.00 | 0.00 | 0.00 | 78 | 1020.5 |
| 20260830073015 | 64 | 261 | 0.0 | 0.0 | 0.00 | 0.00 | 0.00 | 82 | 1020.5 |
| 20260830071518 | 63 | 261 | 0.0 | 0.0 | 0.00 | 0.00 | 0.00 | 83 | 1020.5 |
| 20260830070025 | 63 | 261 | 0.0 | 0.0 | 0.00 | 0.00 | 0.00 | 83 | 1020.5 |
| 20260830064536 | 63 | 261 | 0.0 | 0.0 | 0.00 | 0.00 | 0.00 | 83 | 1020.5 |
| 20260830063018 | 64 | 261 | 0.0 | 2.0 | 0.00 | 0.00 | 0.00 | 81 | 1020.6 |
| 20260830061517 | 65 | 261 | 0.0 | 0.0 | 0.00 | 0.00 | 0.00 | 79 | 1020.7 |
| 20260830060017 | 65 | 260 | 0.0 | 0.0 | 0.00 | 0.00 | 0.00 | 78 | 1020.8 |
| 20260830054536 | 65 | 260 | 0.0 | 0.0 | 0.00 | 0.00 | 0.00 | 77 | 1020.9 |
| 20260830053012 | 65 | 260 | 0.0 | 0.0 | 0.00 | 0.00 | 0.00 | 77 | 1020.9 |
| 20260830051519 | 65 | 260 | 0.0 | 2.0 | 0.00 | 0.00 | 0.00 | 77 | 1020.9 |
| 20260830050019 | 65 | 260 | 0.0 | 0.0 | 0.00 | 0.00 | 0.00 | 76 | 1021.1 |
| 20260830044525 | 65 | 260 | 0.0 | 0.0 | 0.00 | 0.00 | 0.00 | 78 | 1021.1 |
| 20260830043020 | 65 | 260 | 0.0 | 0.0 | 0.00 | 0.00 | 0.00 | 78 | 1021.0 |
| 20260830041526 | 65 | 260 | 0.0 | 0.0 | 0.00 | 0.00 | 0.00 | 79 | 1020.9 |
| 20260830040021 | 66 | 260 | 0.0 | 0.0 | 0.00 | 0.00 | 0.00 | 74 | 1020.7 |
| 20260830034520 | 66 | 260 | 0.0 | 0.0 | 0.00 | 0.00 | 0.00 | 74 | 1020.8 |
| 20260830033018 | 66 | 261 | 0.0 | 0.0 | 0.00 | 0.00 | 0.00 | 74 | 1020.7 |